Wind_Speed
11 11 11 11 11 11 10 9 7 6 5 5 4 5 5 6 6 7 8 8 8 8 8 8 9 9 10 10 10 11 11 12 12 13 14 13 12 13 13 13 14 14 14 15 16 17 17 17 17 17 17 17 17 17 17 17 17 17 18 18 18 19 21 21 21 21 22 22 22 23 24 23 22 23 22 21 20 19 19 18 15 15 15 14 15
11 11 11 11 11 12 11 10 9 7 6 6 5 5 5 6 6 7 8 9 9 8 7 7 8 9 9 8 9 10 10 10 11 12 14 13 12 13 13 13 13 13 13 14 14 15 16 16 16 16 16 16 16 17 17 16 17 17 17 17 17 18 20 20 20 21 21 21 21 21 22 22 21 20 20 19 18 17 17 16 14 13 14 14 15
12 12 12 12 12 12 12 11 10 9 7 6 5 5 6 6 6 7 8 9 9 8 8 7 7 8 9 8 7 9 10 10 10 11 12 13 13 13 12 13 13 13 13 13 13 14 14 14 15 15 15 15 15 16 16 16 16 16 16 17 17 17 18 19 18 19 20 20 20 20 19 19 19 19 17 15 14 16 15 14 13 13 14 14 14
12 13 13 13 13 13 13 13 12 10 9 8 6 6 6 7 6 7 7 8 9 9 8 7 7 7 8 7 7 7 9 10 9 10 11 12 13 13 12 12 13 13 12 12 12 13 13 13 13 14 14 14 14 15 15 15 15 15 16 16 16 17 18 18 17 17 18 18 18 19 17 16 16 17 16 12 10 13 14 13 12 12 14 14 13
11 13 14 15 15 14 14 14 13 12 10 9 8 7 6 7 7 7 7 8 8 9 9 8 7 7 7 7 6 6 7 8 9 9 10 11 12 13 13 12 12 12 12 12 12 12 12 12 12 13 13 13 13 13 14 14 14 14 15 16 16 16 17 17 16 16 16 15 16 16 16 15 14 14 12 9 8 11 12 12 11 11 12 13 12
12 12 13 15 17 16 15 14 14 13 11 10 8 7 7 7 7 7 7 7 8 8 8 9 8 7 7 6 6 5 5 6 8 9 10 10 12 13 12 12 12 12 12 11 11 11 11 11 11 12 12 12 12 12 12 13 13 13 14 14 15 15 15 15 15 14 14 14 14 14 13 13 13 12 9 7 8 9 9 10 11 11 12 12 12
13 13 12 13 16 17 16 15 15 13 12 10 9 8 7 7 7 7 7 7 7 8 8 9 8 8 8 7 6 6 5 6 8 9 9 10 11 12 12 12 12 12 11 11 11 11 11 11 11 11 11 11 11 12 12 12 12 12 12 12 13 14 13 13 13 13 13 12 12 12 11 10 11 10 8 7 7 7 7 8 9 11 11 11 11
13 13 13 13 14 16 17 17 16 14 12 10 9 9 8 8 8 7 7 7 7 7 8 9 9 8 9 8 7 7 6 7 8 8 9 9 10 11 12 12 12 12 12 11 11 11 10 10 11 11 11 10 11 11 12 12 11 11 11 10 11 12 12 11 11 11 11 10 10 10 10 9 8 8 8 7 6 6 7 8 9 10 10 9 10
13 13 14 14 14 15 16 17 17 15 13 12 10 9 9 9 8 8 7 7 7 8 9 10 10 9 9 9 8 8 7 7 8 8 8 9 9 10 10 11 11 11 11 11 11 11 11 10 10 10 10 10 10 10 10 11 10 10 10 9 9 9 10 10 9 9 9 8 8 8 8 8 8 7 6 6 6 7 8 8 9 10 10 9 9
13 13 14 15 15 14 15 17 17 17 15 13 12 10 10 10 9 9 8 7 7 8 9 10 11 10 10 10 9 9 8 8 8 7 8 8 9 9 10 10 10 10 11 11 11 11 11 11 10 10 10 10 9 9 9 9 9 9 8 8 8 7 7 8 8 7 7 7 6 7 7 6 6 6 6 5 5 6 8 7 6 7 9 9 9
14 15 14 14 14 13 13 14 16 17 17 16 14 12 11 11 10 10 8 8 7 8 10 11 11 11 11 10 10 9 9 9 8 7 8 9 9 9 9 9 10 9 9 10 11 11 11 11 11 10 10 10 9 9 9 8 8 8 7 7 7 6 6 6 6 6 6 6 5 5 5 5 6 6 6 5 5 5 7 8 6 5 6 8 8
13 15 15 13 13 12 11 12 13 15 16 17 16 15 13 13 12 11 10 9 8 9 10 11 12 12 12 12 11 10 10 10 9 8 9 9 10 10 10 9 9 8 9 9 10 10 11 11 11 11 10 9 9 9 9 8 8 8 7 7 6 6 6 5 5 5 5 5 5 5 5 5 5 5 6 6 5 5 6 9 9 6 3 4 6
13 15 15 14 13 12 11 12 12 13 14 16 17 17 16 15 14 13 12 10 9 9 10 11 12 13 13 12 12 11 10 10 10 10 9 9 10 10 10 10 9 9 8 8 8 9 10 10 10 10 10 10 9 9 9 9 8 8 7 7 6 6 5 5 5 5 5 5 5 4 4 5 5 5 6 6 6 5 5 7 9 8 4 3 4
14 14 13 14 14 12 13 14 14 14 14 14 16 18 17 17 16 14 13 12 10 10 10 11 12 14 14 13 12 11 11 11 11 11 10 10 10 11 11 11 10 9 9 8 8 8 9 9 9 9 9 10 9 8 8 8 8 8 7 7 6 6 5 5 5 5 5 5 5 5 4 5 5 5 6 6 6 6 6 6 8 8 7 5 5
15 13 13 14 14 13 14 15 14 14 14 13 14 16 18 18 17 16 15 13 11 11 11 11 12 13 14 14 13 12 12 12 12 12 11 11 11 11 11 11 11 10 9 9 8 7 7 7 8 8 8 9 9 8 8 8 8 7 7 6 6 6 6 5 5 5 5 5 6 6 5 5 5 5 6 7 6 6 6 7 7 7 7 6 6
15 14 14 13 13 14 14 15 15 14 13 14 13 14 16 18 19 18 17 15 13 12 12 12 12 13 14 13 13 13 13 13 13 13 12 12 12 12 12 11 11 10 10 9 9 8 7 6 6 7 7 8 8 8 8 8 7 7 6 6 5 5 6 6 5 5 5 5 6 6 6 6 6 6 6 7 7 7 7 7 7 8 7 7 6
15 15 13 11 11 12 13 14 15 14 13 14 14 14 16 17 18 19 19 17 15 14 12 12 12 13 13 13 13 13 14 14 14 14 13 13 13 13 12 11 11 10 10 10 9 8 7 6 6 6 6 6 7 7 8 7 7 7 6 5 4 4 5 5 5 5 5 5 5 5 6 6 6 6 6 6 7 7 7 8 8 8 8 8 7
17 16 13 11 10 11 13 15 16 15 14 16 17 16 16 17 17 19 20 19 18 16 14 13 13 13 13 13 13 13 14 15 15 15 14 14 13 13 13 12 11 10 10 10 9 9 8 7 6 6 6 6 6 6 7 7 7 7 6 5 4 3 3 4 4 5 5 5 5 5 5 5 5 5 5 6 6 7 7 7 8 8 9 8 8
18 17 16 13 12 13 14 15 17 16 15 16 18 18 18 18 17 18 20 21 20 18 16 14 13 14 14 13 13 13 14 15 16 16 16 16 15 14 13 13 12 11 11 11 10 10 9 8 8 7 7 7 6 6 6 7 7 7 6 5 5 3 2 2 3 4 4 4 4 5 4 5 5 5 5 5 6 6 7 7 8 9 9 8 8
18 18 17 15 13 13 14 15 16 15 15 17 18 18 19 20 18 18 19 20 21 20 18 17 15 14 14 14 13 13 13 15 16 17 17 17 17 16 15 15 14 13 12 12 11 10 10 9 9 8 8 8 7 7 7 7 7 7 7 6 6 5 4 3 2 2 3 3 4 4 4 5 5 5 5 5 6 6 7 8 8 9 9 9 8
19 18 17 15 13 14 14 15 15 13 13 17 20 20 20 21 20 19 18 19 21 21 20 18 17 15 15 15 14 13 13 14 15 16 17 18 18 17 17 16 15 15 14 13 12 11 11 10 9 9 8 8 8 7 7 8 8 7 7 7 7 7 6 5 4 3 3 2 3 4 4 5 5 5 5 5 6 6 7 7 8 9 9 9 9
18 19 19 17 16 16 15 15 14 14 14 18 23 25 23 23 22 20 19 19 20 20 20 19 17 16 16 16 16 15 14 14 15 16 17 18 18 18 18 17 17 16 15 14 13 12 12 11 10 10 9 9 8 8 8 8 8 8 9 9 8 8 8 7 6 5 5 4 3 4 4 5 5 6 6 6 6 7 7 8 9 9 10 10 10
18 19 20 19 19 18 18 15 14 16 17 18 22 27 26 24 24 23 22 22 21 20 20 19 17 16 17 18 17 16 15 15 15 17 17 18 18 18 18 18 18 17 16 15 14 14 13 13 12 12 11 10 9 9 8 8 9 9 10 10 10 10 9 8 8 7 7 6 5 5 5 5 6 6 7 7 8 8 8 9 9 10 10 10 11
20 19 20 21 21 20 20 18 16 17 17 17 20 26 26 24 24 25 24 23 23 22 22 22 20 19 19 19 19 18 17 16 16 17 18 19 19 19 19 19 18 18 17 16 15 15 14 14 14 13 13 12 11 10 9 9 9 9 9 10 10 11 11 10 10 9 9 8 7 7 6 6 6 7 7 8 9 9 10 10 10 10 10 10 11
23 23 22 22 22 21 21 20 19 18 17 17 20 25 27 25 24 24 24 23 23 22 23 24 24 22 20 20 20 19 18 18 17 18 19 20 20 19 19 20 19 18 18 17 16 16 15 15 15 15 14 13 12 11 10 9 9 9 9 9 10 10 11 11 11 11 11 10 9 8 8 8 7 7 8 8 9 10 10 11 11 11 11 11 11
26 26 25 24 23 22 22 22 22 21 18 18 22 27 29 26 23 23 24 23 22 22 23 24 24 23 22 22 21 20 19 19 20 20 21 20 20 20 20 20 20 20 19 18 17 17 17 17 16 15 14 14 13 12 11 10 10 10 10 9 10 10 11 11 11 12 12 12 11 10 10 9 9 9 8 9 9 10 11 12 12 13 13 13 12
28 27 27 26 24 24 23 23 24 25 23 21 23 27 28 25 23 25 26 25 23 24 25 25 24 24 25 25 23 22 21 21 22 22 22 21 21 20 20 20 20 20 20 19 19 18 18 17 17 16 15 14 13 13 12 11 11 11 11 10 10 10 10 11 11 12 13 13 13 12 12 11 11 10 10 10 10 10 11 12 13 13 14 14 14
27 28 28 28 26 25 25 24 25 26 26 24 22 22 24 24 23 25 26 25 25 26 26 25 26 27 27 26 25 24 23 23 23 23 22 21 21 21 20 20 19 19 19 19 19 19 18 18 17 16 16 15 14 13 13 12 12 11 11 11 11 10 10 10 11 12 12 13 13 14 14 13 13 12 12 11 11 11 11 12 12 13 13 14 15
27 28 30 29 28 27 26 26 26 26 26 26 24 21 23 24 23 25 26 25 25 26 26 25 27 28 27 26 24 24 23 23 24 24 23 22 22 22 21 20 20 19 18 17 17 17 18 18 18 17 17 16 16 15 14 14 13 12 12 12 11 11 11 11 11 11 11 12 13 14 14 14 15 15 14 14 13 13 12 12 12 12 13 13 14
28 29 30 31 30 29 28 28 28 27 27 28 27 25 24 24 22 22 23 23 25 25 24 24 26 28 28 27 25 24 24 25 25 25 24 23 23 23 22 21 21 21 19 17 15 16 17 18 18 18 18 17 17 17 16 15 14 14 13 12 11 11 11 11 11 11 11 11 12 13 14 15 15 16 16 16 16 15 14 14 13 13 13 13 14
29 30 31 32 32 32 31 30 30 30 30 29 29 28 26 25 24 24 21 20 22 24 21 20 23 26 28 28 26 25 26 27 27 27 26 25 24 24 22 21 21 21 22 20 17 16 16 17 18 18 18 17 17 17 17 16 15 14 13 12 11 11 11 11 11 11 11 11 12 12 13 14 15 16 16 17 17 17 17 17 16 15 15 15 15
30 31 32 33 34 34 34 33 33 33 32 31 31 31 29 26 26 26 22 18 18 22 22 21 22 24 26 27 26 25 26 27 28 28 27 26 25 25 24 23 22 23 24 23 20 18 17 16 17 18 17 17 17 18 18 17 16 15 14 13 12 12 11 11 11 11 11 11 11 12 13 14 15 15 16 17 17 18 18 19 19 19 18 18 17
29 31 33 34 35 36 36 36 35 35 35 34 35 34 33 31 28 27 24 20 18 20 21 22 21 21 22 25 26 25 24 25 25 26 26 27 27 27 26 25 24 25 26 26 23 20 19 18 18 17 17 18 19 18 18 18 18 18 17 15 14 14 13 12 12 12 12 12 12 13 13 14 15 16 16 17 17 17 18 19 19 20 21 21 20
27 29 32 33 34 35 36 37 37 36 37 37 37 37 36 35 34 32 30 28 25 24 24 23 22 20 20 23 25 24 23 23 24 24 25 26 28 28 28 27 27 27 29 29 27 23 21 20 20 19 19 19 20 20 19 19 19 20 19 18 17 16 15 14 14 14 14 14 14 13 14 14 15 16 17 17 18 18 18 18 19 20 21 22 22
27 28 30 32 33 35 36 37 38 38 38 39 40 40 38 37 37 36 35 33 32 31 29 28 26 22 19 20 22 24 25 25 25 25 25 26 27 27 28 29 29 30 31 32 31 27 24 23 23 23 22 21 20 21 21 21 21 22 22 21 19 18 17 16 16 16 16 16 16 15 15 15 16 17 18 19 19 20 20 19 19 19 21 21 21
30 30 30 31 33 34 35 37 38 38 39 40 41 42 41 40 39 38 37 36 35 34 33 31 27 24 22 21 21 23 26 27 27 27 28 28 27 26 27 28 30 31 33 34 33 31 27 25 24 23 23 22 21 22 23 23 24 24 23 22 22 21 19 18 17 18 18 18 18 18 17 17 17 18 19 20 21 22 22 21 21 21 21 22 21
32 33 33 32 33 34 35 36 37 38 39 40 41 42 42 42 41 40 39 38 37 36 34 32 30 27 25 24 23 23 24 27 29 30 30 30 29 28 28 29 30 31 32 34 35 34 31 28 26 24 22 22 22 23 24 25 25 26 25 24 24 23 21 20 19 19 20 20 21 21 21 20 20 20 21 22 23 23 23 23 23 23 23 23 22
35 35 35 35 35 35 36 37 38 38 38 39 40 41 43 43 43 43 42 41 39 38 36 34 33 31 30 28 27 26 25 26 28 30 31 32 31 30 29 29 29 29 30 31 34 34 32 31 29 28 25 22 22 23 25 26 27 28 27 27 26 25 23 22 21 20 21 22 23 23 24 24 23 23 23 24 25 25 24 24 24 25 25 24 23
38 38 37 36 37 37 37 39 39 39 38 39 40 41 42 43 43 43 43 43 42 41 39 38 36 35 34 33 32 30 29 27 27 28 29 31 32 32 30 29 29 29 29 29 30 31 32 31 31 31 29 25 23 24 27 28 29 30 29 28 28 27 25 24 23 23 22 23 24 25 25 26 26 27 27 26 26 27 26 25 26 26 26 24 24
40 41 40 39 39 39 38 39 41 41 40 41 41 42 42 42 42 43 43 44 44 43 43 41 40 39 38 38 36 35 33 31 30 29 29 29 31 32 30 27 28 29 28 28 28 29 29 30 31 32 31 28 26 26 28 29 30 31 31 30 29 28 27 27 26 25 24 24 24 25 26 28 29 30 30 29 29 29 29 29 29 28 26 26 27
41 42 42 41 41 41 41 41 42 43 43 43 44 44 43 43 43 43 44 44 45 45 45 44 43 42 41 41 41 40 39 37 35 33 32 31 31 31 29 28 28 29 28 28 30 30 30 30 31 31 31 30 29 29 30 32 33 33 33 32 31 29 28 28 28 27 25 24 25 26 27 29 30 31 31 32 32 33 32 31 30 30 29 29 31
41 43 43 43 43 44 44 44 44 44 45 45 45 45 45 45 45 45 45 45 46 47 47 46 46 45 44 43 43 43 42 42 41 39 37 35 34 33 30 28 29 30 30 31 33 33 32 32 32 33 32 32 33 33 33 33 34 34 34 33 32 30 29 29 28 26 25 25 26 27 28 29 31 31 33 34 35 36 36 34 32 31 31 32 33
41 43 43 44 44 45 46 46 46 47 47 47 47 47 48 48 47 47 47 47 47 48 48 48 48 48 47 46 46 46 45 45 45 44 42 41 39 38 35 32 31 31 31 32 34 36 35 33 33 34 34 34 35 34 33 32 32 31 30 31 31 30 29 28 26 25 25 26 26 27 28 30 31 32 33 34 35 36 37 35 34 33 33 33 34
42 42 43 44 44 45 46 46 46 47 48 48 49 49 49 49 49 49 49 49 49 49 49 49 50 50 50 49 49 49 48 47 48 47 46 45 44 43 42 40 38 36 35 34 34 35 36 36 36 36 37 37 37 34 32 31 30 30 30 31 31 31 31 29 26 25 25 26 27 27 27 29 30 31 32 32 33 34 35 35 34 34 34 34 33
43 43 44 44 45 45 46 46 45 46 46 47 48 49 50 50 51 51 51 51 51 51 51 51 51 51 52 52 52 52 51 50 50 50 49 48 48 47 46 45 44 43 41 39 37 35 35 36 38 39 39 39 39 37 34 33 33 33 34 34 33 32 31 30 28 26 26 26 26 26 26 26 27 28 29 30 31 33 34 34 35 35 34 35 34
45 46 46 46 47 47 47 47 47 46 46 46 47 47 48 49 50 51 52 52 52 52 53 53 52 52 53 53 54 54 53 53 53 53 52 52 52 51 50 50 49 49 47 46 43 41 39 38 39 40 39 38 38 39 38 37 36 36 37 37 36 33 31 29 28 28 28 27 26 25 24 25 25 25 26 28 30 31 33 34 35 35 36 36 36
45 46 47 47 47 48 48 49 49 48 48 48 48 49 49 49 49 50 50 51 52 52 53 53 54 53 53 54 55 55 54 54 54 55 55 56 55 55 54 54 53 53 52 52 50 48 46 43 43 43 41 38 37 37 38 38 37 35 35 36 35 34 32 30 29 29 30 28 27 26 25 25 25 25 26 28 30 32 33 34 34 35 36 37 37
44 45 46 46 46 47 48 49 49 49 49 49 50 50 50 50 50 50 50 50 50 51 51 52 53 53 53 53 55 55 54 54 54 55 56 57 58 58 57 57 57 56 56 55 54 53 52 50 48 47 45 43 40 40 39 39 37 35 34 33 32 30 29 28 28 30 31 30 29 28 27 27 27 27 27 28 30 32 34 35 35 35 36 37 37
44 44 44 44 44 45 46 47 48 49 49 49 49 49 50 50 50 50 50 50 50 50 50 50 51 51 51 51 52 53 54 54 55 55 56 57 57 58 58 59 59 59 58 57 57 56 55 54 53 51 50 48 46 45 44 42 41 39 37 35 33 31 30 30 31 31 31 30 30 29 29 29 30 29 29 29 30 32 34 36 37 37 37 37 37
42 42 42 42 42 42 43 44 46 47 48 49 49 48 48 48 48 49 49 49 49 50 50 50 50 50 50 49 49 51 53 54 54 54 54 55 56 57 57 58 59 59 59 58 58 58 57 57 56 55 55 53 51 50 48 46 45 44 42 40 38 36 35 35 35 35 33 32 31 30 29 30 31 32 32 32 32 32 33 35 38 39 39 38 37
43 43 42 42 41 41 42 43 44 46 47 47 48 48 47 47 47 47 47 48 48 49 49 50 50 50 49 49 49 50 51 53 53 53 53 53 54 55 56 58 59 59 59 59 59 58 58 58 58 58 58 57 55 54 52 50 49 48 46 45 43 41 40 40 39 38 36 35 34 32 31 31 33 33 33 34 34 33 33 34 37 38 38 38 39
Wind_Direction
194 194 194 185 176 179 178 178 183 178 168 155 146 136 130 130 126 124 127 131 131 123 116 112 109 107 103 99 94 87 81 77 77 81 83 86 91 97 104 110 112 109 105 105 107 108 108 108 106 105 103 101 99 94 90 89 88 88 89 91 92 94 96 98 100 101 103 106 109 111 112 114 115 115 116 116 115 115 115 116 115 111 110 108 105
191 195 201 195 181 181 179 178 184 183 171 160 151 141 136 136 133 132 136 140 140 134 128 121 114 108 102 94 91 89 84 77 77 81 82 85 92 99 105 110 112 111 106 101 102 103 103 104 104 103 102 100 97 92 88 85 85 85 86 88 90 91 95 98 101 103 104 106 108 110 112 113 113 112 112 113 114 113 112 114 115 110 107 108 110
191 195 202 204 192 183 181 181 183 182 175 165 156 147 138 136 140 143 146 150 149 144 141 137 124 114 107 99 95 95 92 83 79 82 83 85 91 99 105 110 112 112 107 102 99 99 99 100 101 101 101 98 95 92 90 86 84 84 86 88 90 93 95 97 100 104 107 108 109 109 109 111 113 111 111 114 114 111 110 112 113 110 109 112 113
196 197 202 208 203 191 184 184 182 181 180 171 160 153 141 135 145 153 155 159 157 152 153 149 137 127 117 106 98 97 97 92 86 87 87 87 92 98 104 108 111 112 110 106 102 100 98 98 98 99 98 97 95 92 91 89 87 88 88 89 92 95 98 100 102 105 107 110 111 110 110 112 110 107 112 119 114 108 111 113 112 113 115 116 113
202 203 204 209 209 200 191 188 185 183 182 176 166 155 144 139 147 160 166 167 166 160 158 154 146 141 131 118 109 101 100 98 95 93 89 90 93 96 100 104 109 113 114 112 108 103 101 99 99 98 97 96 95 93 92 92 92 92 93 94 96 97 100 102 104 106 109 111 111 112 116 116 110 106 114 122 110 104 109 111 112 116 119 118 114
204 204 207 209 210 206 200 194 191 189 186 180 172 159 151 148 150 165 175 175 173 166 160 157 154 151 143 133 125 117 110 107 103 99 96 95 97 97 98 101 105 111 115 115 113 109 105 103 101 99 98 98 97 96 94 94 94 94 95 98 100 101 103 106 107 108 111 113 113 113 117 117 114 115 122 119 106 101 103 109 115 121 123 119 115
205 203 207 211 213 211 208 203 198 196 192 186 179 168 160 158 157 169 180 180 177 170 163 160 158 158 156 148 138 130 126 117 106 104 104 103 102 100 99 99 102 106 111 115 115 114 112 109 105 103 101 100 100 100 99 98 97 96 96 98 101 103 105 109 112 112 114 117 117 117 118 117 116 120 125 116 102 93 93 101 113 123 126 122 119
210 203 204 210 216 216 214 210 205 203 200 195 188 180 172 168 166 174 183 183 179 172 168 165 162 166 166 160 151 141 133 119 111 113 113 109 107 106 104 101 101 103 106 111 115 118 119 118 114 110 108 106 105 104 103 103 102 100 99 98 101 105 107 110 113 115 117 118 119 119 121 122 120 119 119 113 100 88 88 97 111 123 126 120 118
218 210 206 207 213 218 218 216 212 209 208 206 200 189 182 179 176 182 186 183 178 174 174 170 168 172 172 169 161 149 142 128 125 129 121 117 116 113 110 106 105 106 107 109 113 118 122 124 122 119 116 113 111 110 109 108 108 106 106 105 105 108 112 114 113 114 114 117 119 120 122 124 123 121 115 104 97 95 97 108 125 132 128 122 119
217 217 216 209 209 214 219 220 216 213 212 214 212 202 193 190 188 190 192 186 179 174 176 175 173 176 178 178 170 157 152 143 137 138 131 130 129 123 117 113 111 112 112 113 114 117 121 124 126 126 123 121 119 118 117 117 116 115 114 115 114 113 113 114 112 108 107 110 114 116 121 122 120 119 114 102 98 100 102 110 131 141 135 134 132
210 215 221 217 212 213 220 224 221 218 216 216 217 212 204 201 198 198 198 192 183 175 177 179 178 181 183 184 181 168 161 155 150 149 146 144 140 133 127 121 119 119 119 119 120 120 121 123 124 124 125 126 125 124 124 123 123 124 123 122 121 117 116 113 109 106 103 102 102 108 118 122 120 117 112 108 102 106 114 116 128 146 139 135 138
211 214 218 221 216 211 220 228 225 224 223 222 221 218 213 210 205 205 205 198 190 180 178 181 182 186 188 189 187 180 171 163 157 156 155 152 148 144 139 131 129 129 126 126 127 126 125 125 124 124 126 127 125 124 124 124 124 125 125 124 123 122 122 119 112 109 107 104 105 111 119 123 122 114 110 110 102 105 126 131 138 149 137 126 136
219 215 213 218 217 209 215 225 223 221 223 224 226 224 219 216 211 210 210 203 194 186 182 185 187 191 194 193 190 187 181 173 165 161 162 160 157 155 150 147 144 140 135 134 134 132 130 129 128 129 130 128 126 127 125 124 124 123 123 122 122 124 126 123 119 118 118 116 113 114 122 125 121 114 112 115 114 113 123 135 143 149 147 141 142
224 218 215 217 216 211 217 225 222 216 214 215 225 228 225 220 216 214 216 210 199 189 185 189 193 196 199 198 193 190 188 183 174 167 167 167 166 163 161 160 159 153 147 143 141 139 136 135 134 134 133 131 132 133 130 127 126 125 125 124 124 125 129 130 129 130 132 130 127 125 131 131 123 119 116 116 117 119 125 139 148 152 153 156 157
226 225 225 222 218 216 224 231 225 218 213 208 216 226 227 224 220 216 218 218 208 195 187 191 199 203 205 203 196 193 192 189 184 178 174 173 171 172 171 169 167 162 158 155 153 149 145 144 143 140 138 137 138 136 133 131 131 131 130 129 128 127 129 134 137 142 146 145 142 141 143 140 130 130 132 129 129 130 132 142 153 158 153 151 159
228 231 233 230 226 225 231 234 225 220 222 213 209 221 226 225 224 221 220 222 219 207 193 191 201 210 213 210 201 196 196 195 192 187 183 180 178 178 179 176 172 169 166 164 165 162 159 160 157 150 148 148 144 140 137 135 134 134 135 136 134 131 130 134 139 145 152 156 155 152 152 153 146 142 145 144 143 143 140 145 158 164 161 160 165
227 231 236 235 229 228 231 228 220 221 228 219 212 220 226 224 225 225 223 223 224 219 206 195 199 211 218 217 209 201 200 200 198 195 193 189 185 183 184 183 179 175 172 171 170 169 170 173 172 168 167 162 155 150 147 143 139 138 140 141 138 137 134 135 138 140 147 156 159 159 161 162 156 151 156 153 149 148 150 158 165 169 175 177 176
222 224 227 226 221 221 222 220 222 227 230 224 220 222 225 224 224 225 225 225 225 224 217 206 202 210 219 221 216 207 204 205 202 200 199 197 194 191 190 189 187 183 180 178 176 175 176 179 182 185 186 181 174 169 161 155 152 150 150 150 147 148 145 141 141 137 142 150 156 161 166 168 165 164 170 167 159 158 163 171 172 175 187 191 186
219 222 220 219 218 218 219 222 230 233 230 225 221 219 222 223 223 225 226 226 227 226 223 217 211 213 220 224 221 212 208 209 208 205 204 202 200 197 196 196 195 192 189 187 185 183 181 182 187 192 196 197 195 192 182 173 170 167 166 167 165 166 171 164 153 143 141 145 151 160 166 173 176 177 180 177 171 170 174 180 182 187 196 199 197
216 221 222 221 222 225 227 230 233 235 233 225 218 218 222 223 222 223 226 227 226 225 224 222 218 217 222 228 228 220 213 212 212 211 208 207 205 202 201 202 202 201 199 196 194 193 192 190 192 196 201 205 205 203 197 194 193 188 184 186 184 183 190 200 195 175 158 149 153 163 170 177 184 186 187 185 183 184 185 188 192 199 206 207 206
215 218 221 221 224 229 233 236 235 237 240 232 224 224 227 226 223 221 225 228 226 225 224 222 220 220 224 230 233 229 221 217 217 216 213 211 210 209 207 207 207 207 207 205 202 201 203 204 203 203 206 209 210 207 204 204 207 207 204 204 203 198 198 205 214 218 207 184 172 176 180 186 190 193 197 197 195 195 196 197 200 206 211 213 214
217 216 218 220 225 230 232 236 239 241 247 242 231 227 228 228 225 221 223 227 226 224 221 220 221 223 225 229 234 236 231 224 222 221 219 215 213 214 214 213 214 214 212 213 212 209 209 212 214 215 215 215 214 211 207 207 210 213 214 215 217 214 211 211 214 221 228 226 215 205 200 200 201 201 204 210 211 208 205 206 208 211 214 217 220
221 219 221 222 227 232 230 232 237 239 248 250 235 226 227 226 221 220 221 221 221 220 218 218 221 224 224 225 230 234 235 232 229 226 224 220 216 215 215 217 219 220 218 218 218 217 216 216 219 222 223 220 219 217 213 211 211 213 214 216 219 221 220 219 219 223 230 232 229 226 220 216 214 213 213 215 218 219 218 216 216 218 219 222 225
224 222 223 224 228 231 230 229 232 236 246 251 235 226 227 227 224 225 224 220 219 218 217 217 217 219 222 223 226 230 233 235 234 232 230 225 221 217 215 217 219 220 222 222 222 222 221 221 222 223 225 223 221 220 217 215 213 214 214 214 216 218 220 220 221 225 230 233 233 231 229 228 225 224 224 224 225 226 226 226 226 226 226 226 228
229 226 225 226 228 231 230 229 230 231 238 243 233 225 225 226 226 232 234 228 223 219 218 219 219 218 218 220 224 228 232 236 239 240 239 234 229 222 217 217 217 219 220 221 224 225 225 226 226 225 226 226 223 220 217 215 213 215 217 216 215 216 217 219 221 224 228 231 233 233 233 233 232 232 233 235 236 235 234 233 233 233 233 233 234
231 229 229 229 230 231 232 231 229 228 231 234 229 224 224 222 219 223 230 231 229 224 222 223 222 220 217 216 218 222 227 233 237 239 241 241 239 234 226 221 217 217 219 219 221 224 226 228 228 227 227 226 225 222 219 217 216 217 219 219 219 218 218 219 220 223 226 228 229 231 232 234 235 236 238 240 243 243 244 243 242 241 240 240 240
228 229 229 230 230 232 233 233 231 229 230 232 228 222 223 224 218 215 218 223 229 231 229 227 225 225 220 215 215 218 222 228 233 235 237 239 240 241 238 233 225 220 220 220 220 222 226 228 229 228 226 225 225 223 222 222 222 222 222 221 222 222 220 220 220 221 224 226 228 228 229 232 234 237 240 243 246 248 250 251 251 250 249 248 247
226 227 230 231 230 232 234 235 234 232 231 236 236 227 224 229 228 224 221 221 225 228 230 229 229 228 224 218 219 223 223 226 231 234 236 236 239 241 242 243 240 233 228 227 226 224 225 228 230 229 227 224 223 224 224 226 228 228 227 225 225 225 224 223 222 222 224 225 227 228 229 230 232 235 239 242 246 248 251 253 255 255 255 255 255
223 225 229 231 232 233 235 237 238 237 235 239 243 235 226 227 230 231 227 224 224 227 229 232 233 232 228 224 226 229 228 229 234 237 236 235 237 240 240 243 245 243 239 238 240 239 235 232 231 231 230 226 224 224 224 226 227 229 231 231 230 230 230 230 227 225 227 227 228 229 231 232 233 234 236 238 242 244 247 251 254 256 258 258 258
222 224 227 231 232 233 236 238 241 242 241 242 245 242 235 232 232 233 230 226 227 228 230 233 234 234 232 230 232 234 234 234 237 239 238 236 237 240 241 243 245 245 241 236 238 247 250 247 240 234 232 231 229 228 228 227 228 229 232 235 236 236 237 238 237 234 232 231 230 231 232 234 235 237 238 239 240 242 244 247 250 251 254 255 256
223 224 226 229 232 233 234 237 240 244 245 244 244 245 243 241 238 236 237 235 229 224 226 230 231 234 237 237 236 236 236 235 236 238 239 239 240 240 239 241 244 248 246 238 231 235 245 254 255 248 240 236 236 236 235 234 234 236 238 240 242 245 246 247 249 248 246 242 239 237 236 236 238 239 240 242 243 243 244 244 245 246 248 249 251
226 226 227 228 231 232 234 236 238 242 245 244 244 245 244 245 243 241 245 247 234 223 226 233 234 235 238 237 235 235 237 238 238 239 240 240 240 240 238 237 238 243 245 242 235 230 232 243 255 259 256 248 242 242 243 242 240 239 242 245 246 248 251 253 256 258 259 258 254 250 245 242 242 242 242 244 244 245 246 245 245 246 246 247 247
229 230 230 231 232 233 235 236 237 240 244 246 248 248 248 249 250 248 248 248 238 228 228 233 235 234 233 231 231 234 237 240 238 237 237 237 238 241 239 234 234 238 241 241 238 233 232 236 240 248 256 255 249 245 246 248 246 242 240 242 244 246 248 251 254 256 259 262 262 261 258 254 251 249 247 247 246 246 246 246 246 246 246 247 247
233 234 234 234 235 235 236 236 236 238 241 245 249 250 251 252 254 253 252 250 247 243 242 242 243 242 238 233 232 232 234 238 237 235 236 237 238 241 239 235 236 241 242 241 239 233 230 235 237 239 244 249 251 251 248 248 250 248 245 241 240 242 243 246 249 251 254 257 259 260 262 263 262 261 258 256 253 250 248 247 247 247 247 247 247
236 236 236 237 238 238 238 238 237 237 238 242 246 249 250 252 253 255 255 254 254 254 255 253 250 250 250 244 239 235 233 236 238 237 239 241 241 242 240 238 240 243 243 242 242 237 231 231 236 238 240 244 250 254 254 252 252 252 252 251 248 245 244 245 248 250 252 254 256 257 259 261 263 265 265 265 263 261 257 253 251 250 249 248 247
241 240 239 239 240 241 241 241 240 239 239 240 243 247 249 250 252 254 255 255 256 257 258 258 256 256 257 255 252 245 238 237 238 237 239 242 245 246 245 242 242 243 243 242 243 242 239 237 238 240 244 247 250 253 254 255 254 253 253 253 253 252 251 251 253 255 255 256 256 256 257 258 259 262 263 264 265 265 265 263 259 255 254 253 250
243 242 241 241 241 242 243 244 243 243 242 242 242 245 247 249 251 253 254 255 256 256 258 259 258 258 258 257 257 253 246 241 239 238 239 240 243 246 247 247 247 245 242 241 241 241 240 240 240 241 244 247 249 251 252 254 255 255 254 254 253 253 253 253 254 257 259 261 261 260 259 258 258 259 260 262 263 263 265 266 266 263 260 258 256
243 243 243 243 243 243 244 245 245 245 245 244 244 244 246 248 250 252 253 254 255 256 257 258 257 258 258 257 256 255 252 248 244 242 241 240 241 245 247 250 250 246 241 241 241 239 239 239 237 237 238 239 242 247 249 250 251 252 254 255 256 256 255 254 254 255 256 259 262 264 265 264 262 261 261 262 263 263 263 264 266 267 267 266 264
245 245 245 245 246 246 245 246 246 246 245 244 245 246 246 247 249 250 252 254 255 255 256 256 256 257 258 258 258 257 257 255 253 251 248 243 241 241 244 248 249 246 243 242 240 240 241 239 236 236 236 234 236 243 248 250 250 250 250 252 253 255 256 256 255 255 255 256 258 262 265 267 268 268 267 267 268 269 270 268 267 267 268 268 265
246 247 247 246 246 246 246 246 246 246 245 244 245 246 246 246 247 248 250 252 254 255 255 255 255 256 256 257 258 258 259 258 257 256 255 252 247 244 243 245 246 244 242 241 239 238 239 240 238 238 238 235 234 238 244 248 250 250 250 249 250 251 252 252 252 252 255 257 258 259 262 264 266 268 270 271 272 272 272 272 271 272 271 266 263
245 247 247 246 245 245 245 245 246 247 247 246 247 247 247 247 247 247 247 248 250 252 254 256 256 256 257 258 259 259 260 260 259 257 256 256 255 253 252 252 251 248 244 242 241 240 241 243 242 241 241 239 236 237 240 244 246 247 248 248 247 247 247 248 250 252 255 257 258 258 260 261 263 264 265 266 267 267 267 267 269 272 272 268 266
243 245 247 245 244 245 245 245 246 248 248 249 249 249 249 248 248 248 248 248 249 250 251 253 255 256 257 258 259 260 261 262 263 262 260 258 256 256 255 256 257 256 251 246 243 244 247 248 244 241 241 242 241 239 240 242 244 245 247 248 248 246 246 247 250 253 255 256 256 257 257 259 261 262 263 264 265 266 267 267 267 267 267 267 268
242 244 246 246 247 246 246 246 247 248 249 250 250 250 251 251 250 250 250 250 249 249 250 251 252 254 254 255 257 258 259 261 263 264 264 263 261 258 256 255 255 257 256 251 247 246 248 249 246 244 243 244 244 244 243 243 244 245 249 253 253 251 249 249 249 250 252 254 255 257 258 259 260 263 265 267 269 270 271 271 271 269 267 266 267
244 245 246 247 249 249 249 249 248 248 249 250 251 251 252 252 252 252 251 251 251 251 251 250 251 252 252 253 254 255 256 258 260 262 263 265 265 264 262 259 257 257 257 255 252 249 248 247 246 246 247 248 248 247 247 248 248 248 250 254 255 254 254 252 250 248 250 251 253 256 258 260 263 266 268 271 273 274 275 274 273 271 269 267 265
244 245 246 248 249 250 251 252 251 250 251 251 252 253 253 253 253 253 253 252 252 252 252 252 251 252 252 252 252 252 253 254 256 258 260 262 263 265 265 264 263 262 260 258 256 254 252 250 248 247 249 252 252 250 247 246 245 245 246 248 249 250 252 253 252 249 249 251 253 256 259 263 266 268 269 271 273 275 276 275 275 274 273 270 266
245 245 246 248 249 251 252 253 254 254 254 254 254 254 255 255 255 255 254 254 253 254 253 253 253 253 253 253 253 252 251 252 253 255 256 258 260 262 263 264 265 265 264 262 261 259 258 257 256 254 254 254 253 250 248 245 243 244 245 247 249 251 254 255 254 254 253 253 255 257 260 263 266 267 266 267 269 271 272 272 273 274 274 273 270
246 246 246 247 249 250 251 252 254 255 256 256 256 256 256 257 257 257 257 257 256 255 255 255 254 254 254 254 255 254 253 252 252 252 253 255 257 258 260 261 263 264 265 265 264 263 261 260 261 262 262 260 255 251 248 247 247 249 252 253 255 257 257 255 255 257 259 260 261 262 262 263 264 263 263 263 265 267 268 268 268 268 269 271 271
247 247 248 248 249 249 251 252 253 254 255 256 256 257 257 257 258 258 259 259 259 258 257 256 256 255 255 255 256 256 256 254 252 251 251 252 253 255 257 258 260 261 262 264 264 264 263 262 262 262 264 263 260 256 253 251 252 253 256 258 260 260 259 256 255 259 263 265 268 269 268 268 266 264 262 262 263 263 264 265 265 264 265 267 269
249 249 249 249 249 250 251 252 253 254 255 255 256 256 257 257 258 258 259 259 260 260 259 258 257 257 256 256 257 258 257 256 254 253 252 252 252 253 254 255 257 258 259 260 261 262 263 263 262 261 262 262 261 260 258 257 256 256 256 258 260 261 262 260 260 260 263 266 270 271 271 271 271 270 268 268 267 265 262 262 263 264 263 264 266
249 249 249 249 250 250 251 252 253 254 255 256 257 257 257 258 258 259 259 259 260 260 260 260 259 258 257 257 256 257 258 258 257 256 255 254 253 252 252 253 254 255 256 257 258 259 260 262 262 262 261 261 260 260 259 259 258 258 257 258 258 259 261 262 262 262 263 266 269 270 271 272 273 273 272 272 272 270 266 262 262 263 263 264 265
251 250 250 250 250 250 250 250 252 253 254 256 257 258 258 259 259 259 259 259 259 260 260 261 261 260 259 258 258 258 259 260 260 259 258 256 255 254 253 252 252 253 254 254 255 256 257 259 260 261 261 261 261 260 260 260 259 258 258 258 258 258 259 261 262 263 264 266 267 268 269 271 273 274 274 272 271 270 269 266 264 263 263 264 264
Height
5922 5923 5924 5925 5927 5928 5930 5931 5932 5933 5933 5934 5935 5936 5936 5937 5937 5938 5938 5939 5940 5941 5941 5942 5943 5944 5945 5946 5946 5946 5946 5946 5946 5946 5946 5946 5947 5948 5949 5950 5951 5952 5953 5954 5955 5955 5956 5956 5957 5957 5957 5958 5959 5959 5960 5960 5960 5961 5961 5962 5962 5962 5962 5962 5963 5964 5965 5965 5966 5967 5967 5968 5969 5970 5971 5972 5972 5973 5973 5975 5976 5976 5977 5977 5977
5922 5923 5924 5925 5926 5928 5930 5931 5932 5933 5933 5934 5935 5936 5937 5938 5938 5938 5939 5940 5941 5941 5942 5942 5943 5944 5945 5946 5946 5946 5947 5947 5947 5947 5948 5948 5949 5949 5950 5951 5952 5953 5954 5955 5956 5956 5957 5957 5958 5958 5959 5960 5960 5960 5960 5961 5961 5961 5962 5962 5963 5963 5963 5964 5965 5966 5967 5968 5968 5969 5970 5970 5971 5972 5973 5974 5974 5975 5975 5976 5977 5978 5978 5979 5979
5921 5923 5924 5925 5926 5928 5929 5930 5932 5933 5934 5935 5936 5937 5937 5938 5939 5939 5940 5941 5941 5942 5943 5943 5944 5945 5946 5947 5947 5948 5948 5948 5949 5949 5949 5950 5950 5951 5951 5952 5953 5953 5954 5955 5956 5957 5958 5958 5959 5959 5960 5961 5961 5961 5962 5962 5963 5963 5963 5964 5964 5965 5965 5966 5967 5968 5969 5970 5970 5971 5972 5973 5973 5974 5975 5976 5976 5976 5976 5978 5979 5979 5979 5980 5980
5921 5923 5924 5925 5926 5927 5929 5930 5931 5932 5933 5934 5936 5937 5938 5939 5939 5940 5941 5941 5942 5943 5943 5944 5945 5946 5947 5948 5948 5949 5949 5950 5950 5951 5951 5951 5951 5952 5953 5953 5954 5955 5956 5956 5957 5958 5959 5959 5960 5960 5961 5962 5962 5963 5963 5964 5965 5965 5965 5966 5966 5967 5967 5968 5969 5970 5971 5971 5972 5973 5974 5975 5975 5975 5976 5978 5978 5977 5977 5979 5980 5980 5980 5981 5981
5922 5923 5924 5925 5926 5927 5929 5930 5931 5932 5933 5934 5936 5937 5938 5939 5940 5941 5941 5942 5943 5943 5944 5945 5946 5947 5948 5948 5950 5950 5950 5951 5951 5952 5952 5953 5953 5953 5954 5955 5955 5956 5957 5958 5958 5959 5960 5961 5961 5962 5963 5963 5964 5964 5965 5966 5967 5967 5967 5967 5968 5969 5969 5970 5971 5972 5973 5974 5974 5974 5975 5976 5977 5977 5978 5979 5979 5978 5979 5979 5980 5981 5981 5981 5982
5921 5922 5923 5924 5926 5927 5929 5930 5931 5931 5933 5934 5935 5937 5938 5939 5940 5941 5942 5943 5943 5944 5945 5946 5947 5947 5948 5949 5951 5952 5952 5952 5953 5953 5954 5955 5955 5955 5955 5956 5957 5958 5958 5959 5960 5961 5961 5962 5963 5964 5964 5965 5965 5966 5967 5967 5968 5969 5969 5969 5970 5970 5971 5972 5973 5973 5974 5975 5976 5976 5977 5977 5978 5978 5980 5980 5980 5980 5980 5980 5980 5981 5982 5982 5983
5921 5922 5923 5924 5925 5927 5929 5930 5931 5932 5933 5934 5935 5937 5938 5939 5940 5941 5942 5943 5944 5945 5946 5947 5947 5948 5949 5950 5951 5952 5953 5954 5954 5954 5955 5956 5956 5957 5957 5958 5958 5959 5960 5960 5961 5962 5963 5963 5964 5965 5966 5967 5967 5968 5968 5969 5970 5970 5971 5971 5972 5972 5973 5973 5974 5975 5975 5976 5977 5978 5978 5979 5979 5979 5981 5981 5981 5981 5981 5981 5981 5982 5982 5983 5983
5920 5921 5922 5924 5925 5927 5928 5930 5931 5932 5933 5934 5935 5937 5938 5939 5940 5941 5942 5943 5944 5945 5946 5947 5948 5948 5949 5950 5951 5952 5954 5955 5955 5956 5957 5957 5958 5958 5959 5959 5960 5960 5961 5962 5962 5963 5964 5965 5965 5966 5967 5968 5969 5969 5970 5971 5971 5972 5972 5973 5973 5974 5974 5975 5975 5976 5976 5977 5978 5978 5979 5980 5980 5981 5981 5981 5982 5982 5982 5982 5982 5983 5983 5984 5984
5919 5920 5921 5923 5924 5926 5928 5929 5931 5932 5933 5934 5935 5937 5938 5939 5940 5941 5942 5943 5944 5946 5947 5947 5948 5949 5950 5950 5951 5952 5954 5955 5956 5957 5957 5958 5959 5960 5960 5961 5961 5962 5962 5963 5964 5964 5965 5966 5966 5967 5968 5969 5970 5971 5971 5972 5972 5973 5974 5974 5975 5975 5976 5976 5977 5977 5978 5978 5979 5980 5980 5980 5981 5981 5982 5982 5983 5983 5983 5983 5984 5984 5984 5985 5985
5918 5919 5920 5922 5923 5925 5927 5929 5930 5932 5933 5934 5935 5937 5938 5939 5940 5941 5942 5943 5944 5946 5947 5948 5948 5949 5950 5951 5951 5952 5954 5955 5956 5957 5958 5959 5960 5961 5961 5962 5962 5963 5964 5964 5965 5966 5966 5967 5967 5968 5969 5970 5971 5971 5972 5973 5973 5974 5975 5975 5976 5976 5977 5977 5978 5978 5979 5979 5980 5981 5981 5981 5982 5982 5982 5983 5983 5984 5984 5985 5985 5985 5985 5985 5986
5917 5918 5920 5921 5923 5925 5927 5929 5930 5931 5933 5934 5935 5936 5938 5939 5940 5941 5942 5943 5944 5946 5947 5948 5949 5949 5950 5951 5952 5953 5954 5955 5956 5958 5958 5959 5960 5961 5962 5963 5964 5964 5965 5965 5966 5967 5967 5968 5968 5969 5969 5970 5971 5972 5973 5974 5974 5975 5975 5976 5976 5977 5978 5978 5978 5979 5980 5980 5981 5981 5982 5982 5982 5982 5983 5983 5984 5984 5984 5985 5986 5987 5987 5986 5987
5915 5917 5919 5920 5922 5924 5926 5928 5930 5931 5932 5933 5934 5935 5937 5939 5940 5941 5942 5943 5944 5945 5947 5948 5949 5949 5950 5951 5953 5954 5954 5955 5956 5958 5958 5959 5960 5961 5962 5963 5964 5965 5966 5966 5967 5967 5968 5969 5969 5970 5970 5971 5972 5973 5974 5974 5975 5975 5976 5976 5977 5978 5978 5979 5979 5980 5980 5981 5981 5982 5982 5983 5983 5983 5983 5984 5984 5985 5985 5985 5986 5987 5988 5988 5988
5914 5916 5918 5919 5921 5923 5924 5926 5928 5930 5931 5932 5934 5935 5936 5938 5940 5941 5941 5942 5943 5944 5946 5947 5948 5949 5950 5951 5953 5954 5955 5955 5956 5957 5958 5959 5960 5961 5962 5963 5964 5965 5966 5967 5968 5968 5969 5969 5970 5970 5971 5972 5972 5973 5974 5975 5975 5976 5976 5977 5977 5978 5978 5979 5980 5980 5980 5981 5982 5982 5983 5983 5983 5984 5984 5984 5985 5985 5986 5986 5986 5987 5988 5989 5989
5913 5915 5916 5918 5919 5921 5923 5925 5927 5928 5929 5930 5932 5933 5935 5937 5939 5940 5941 5942 5943 5944 5945 5946 5947 5948 5949 5950 5952 5954 5955 5955 5956 5957 5958 5959 5960 5961 5962 5963 5964 5965 5966 5967 5968 5969 5969 5970 5970 5971 5971 5972 5973 5974 5974 5975 5975 5976 5977 5977 5978 5978 5979 5979 5980 5980 5981 5981 5982 5982 5983 5983 5984 5984 5985 5985 5985 5985 5986 5986 5987 5987 5988 5988 5989
5912 5914 5916 5917 5918 5919 5921 5923 5926 5927 5927 5929 5930 5932 5934 5936 5938 5940 5941 5941 5942 5943 5944 5945 5947 5948 5948 5950 5951 5953 5954 5955 5956 5957 5958 5959 5960 5961 5962 5963 5964 5964 5965 5966 5968 5969 5970 5970 5971 5971 5972 5972 5973 5973 5974 5975 5975 5976 5977 5977 5978 5978 5979 5979 5980 5980 5981 5981 5982 5982 5983 5983 5984 5984 5985 5985 5986 5986 5986 5986 5987 5987 5988 5988 5989
5913 5914 5915 5916 5917 5918 5920 5922 5924 5926 5926 5927 5929 5931 5932 5934 5936 5939 5940 5941 5941 5942 5943 5945 5946 5947 5948 5949 5950 5952 5953 5955 5956 5957 5958 5958 5959 5960 5961 5962 5963 5964 5965 5966 5967 5968 5969 5970 5971 5972 5972 5972 5973 5973 5974 5974 5975 5976 5976 5977 5977 5978 5978 5979 5980 5980 5981 5981 5982 5982 5983 5983 5984 5984 5984 5985 5985 5986 5986 5986 5987 5987 5988 5988 5988
5912 5913 5914 5915 5916 5918 5920 5921 5922 5924 5925 5925 5927 5929 5930 5932 5934 5937 5939 5940 5941 5941 5943 5944 5945 5946 5947 5948 5950 5951 5952 5954 5955 5956 5957 5958 5959 5959 5960 5961 5962 5963 5964 5965 5966 5967 5968 5970 5971 5971 5972 5973 5973 5973 5974 5974 5975 5975 5976 5977 5977 5978 5978 5979 5979 5980 5980 5981 5981 5982 5982 5983 5983 5984 5984 5984 5985 5985 5986 5986 5986 5987 5987 5987 5988
5910 5912 5913 5915 5916 5917 5918 5919 5920 5921 5923 5924 5926 5928 5929 5930 5932 5934 5937 5938 5940 5941 5942 5943 5944 5945 5946 5948 5949 5950 5951 5953 5954 5955 5956 5957 5958 5958 5959 5960 5961 5962 5963 5964 5965 5966 5967 5968 5970 5971 5972 5972 5973 5973 5974 5974 5974 5975 5975 5976 5977 5977 5978 5978 5979 5979 5980 5981 5981 5981 5982 5982 5983 5983 5984 5984 5984 5985 5985 5986 5986 5986 5987 5987 5987
5908 5910 5912 5913 5914 5915 5916 5917 5917 5918 5921 5922 5924 5926 5928 5929 5931 5932 5934 5936 5938 5940 5941 5942 5944 5945 5946 5947 5948 5949 5950 5951 5953 5954 5955 5956 5956 5957 5959 5960 5960 5961 5962 5963 5964 5965 5966 5967 5968 5970 5971 5971 5972 5973 5973 5974 5974 5974 5975 5975 5976 5976 5977 5978 5978 5979 5980 5980 5981 5981 5981 5982 5982 5983 5983 5984 5984 5984 5985 5985 5985 5986 5986 5986 5987
5907 5909 5911 5912 5913 5914 5914 5915 5916 5917 5920 5921 5922 5924 5926 5927 5929 5930 5932 5934 5936 5938 5939 5941 5942 5944 5945 5946 5947 5948 5950 5950 5951 5952 5953 5954 5955 5956 5957 5958 5959 5960 5961 5961 5962 5963 5965 5966 5967 5968 5969 5970 5971 5972 5972 5973 5973 5974 5974 5974 5975 5976 5976 5977 5978 5978 5979 5979 5980 5981 5981 5981 5981 5982 5982 5983 5983 5984 5984 5984 5985 5985 5985 5985 5986
5905 5907 5909 5911 5911 5911 5912 5913 5914 5916 5918 5920 5921 5922 5924 5926 5927 5928 5931 5932 5934 5936 5937 5939 5941 5942 5943 5945 5946 5947 5949 5950 5950 5951 5952 5953 5954 5955 5956 5957 5958 5959 5959 5960 5961 5962 5963 5964 5965 5966 5967 5968 5969 5970 5971 5972 5973 5973 5974 5974 5974 5975 5975 5976 5977 5978 5978 5979 5979 5980 5980 5980 5981 5981 5981 5982 5982 5982 5983 5983 5984 5984 5984 5985 5985
5903 5905 5907 5909 5909 5909 5910 5911 5913 5915 5916 5917 5919 5919 5921 5923 5925 5926 5928 5930 5932 5934 5935 5936 5938 5940 5941 5942 5944 5946 5947 5949 5949 5950 5950 5951 5952 5953 5954 5955 5956 5957 5958 5959 5960 5961 5961 5962 5963 5964 5965 5966 5968 5969 5970 5971 5972 5972 5973 5973 5973 5974 5975 5975 5976 5977 5977 5978 5978 5979 5979 5980 5980 5980 5980 5981 5981 5981 5982 5982 5983 5983 5983 5983 5984
5901 5904 5905 5907 5907 5908 5909 5911 5912 5913 5913 5914 5916 5916 5918 5920 5922 5923 5924 5925 5928 5930 5932 5933 5935 5937 5938 5939 5941 5943 5945 5947 5948 5949 5949 5949 5950 5951 5952 5953 5954 5955 5956 5957 5958 5959 5960 5961 5962 5962 5963 5964 5966 5967 5968 5969 5970 5971 5972 5972 5972 5973 5974 5974 5975 5976 5976 5977 5977 5978 5978 5979 5979 5979 5979 5979 5980 5980 5980 5981 5981 5981 5982 5982 5982
5899 5901 5903 5904 5905 5906 5908 5909 5911 5911 5911 5911 5912 5914 5916 5919 5922 5923 5922 5923 5925 5926 5928 5930 5932 5933 5935 5937 5938 5940 5942 5945 5946 5947 5948 5948 5948 5949 5950 5950 5951 5953 5954 5955 5956 5957 5958 5959 5960 5961 5962 5963 5964 5965 5966 5968 5969 5969 5970 5971 5971 5972 5972 5973 5974 5975 5975 5976 5976 5977 5977 5978 5978 5978 5978 5978 5979 5979 5979 5980 5980 5980 5980 5981 5981
5895 5898 5899 5901 5903 5904 5905 5907 5908 5909 5909 5909 5910 5912 5913 5916 5920 5923 5923 5923 5925 5925 5925 5928 5929 5930 5932 5934 5936 5938 5940 5942 5944 5946 5947 5947 5947 5948 5948 5948 5949 5951 5952 5953 5954 5955 5957 5957 5958 5959 5960 5961 5962 5963 5965 5966 5967 5968 5968 5969 5969 5970 5971 5971 5972 5973 5974 5974 5975 5976 5976 5976 5977 5977 5977 5977 5978 5978 5978 5978 5979 5979 5979 5979 5979
5891 5894 5896 5898 5900 5901 5902 5903 5905 5907 5908 5908 5908 5909 5911 5912 5915 5919 5921 5924 5925 5924 5923 5925 5927 5928 5928 5931 5933 5935 5936 5938 5940 5942 5944 5946 5947 5948 5947 5947 5948 5948 5950 5951 5952 5954 5955 5956 5957 5958 5959 5960 5961 5962 5963 5964 5965 5966 5966 5967 5967 5968 5969 5969 5970 5971 5972 5973 5973 5974 5975 5975 5975 5975 5976 5976 5976 5977 5977 5977 5977 5977 5978 5978 5978
5887 5890 5892 5895 5897 5899 5900 5901 5902 5903 5905 5906 5906 5907 5909 5911 5912 5914 5917 5919 5921 5921 5921 5923 5925 5925 5926 5928 5930 5931 5932 5933 5935 5937 5940 5943 5946 5948 5948 5948 5948 5948 5948 5949 5951 5952 5953 5954 5955 5957 5958 5959 5960 5961 5962 5963 5963 5964 5964 5965 5965 5966 5967 5967 5968 5968 5969 5970 5971 5972 5973 5973 5973 5974 5974 5975 5975 5976 5976 5976 5976 5976 5976 5977 5977
5884 5886 5889 5891 5894 5896 5897 5898 5899 5900 5903 5904 5905 5906 5908 5910 5911 5912 5913 5914 5914 5915 5918 5921 5922 5922 5923 5924 5926 5928 5929 5931 5933 5935 5937 5940 5943 5946 5948 5949 5949 5949 5949 5949 5950 5951 5952 5952 5954 5955 5956 5957 5958 5959 5960 5961 5962 5962 5963 5963 5964 5964 5964 5965 5966 5966 5967 5967 5968 5969 5970 5971 5972 5972 5973 5973 5974 5974 5975 5975 5975 5975 5975 5975 5975
5881 5883 5885 5887 5890 5892 5894 5896 5896 5898 5901 5902 5903 5905 5906 5907 5910 5911 5911 5911 5911 5912 5915 5917 5919 5920 5920 5921 5923 5925 5927 5929 5931 5933 5935 5937 5940 5942 5945 5947 5949 5949 5949 5950 5950 5951 5952 5952 5952 5953 5954 5955 5956 5956 5957 5958 5959 5960 5961 5962 5962 5962 5963 5963 5963 5964 5964 5965 5966 5967 5968 5968 5969 5970 5971 5971 5972 5973 5973 5974 5974 5974 5974 5974 5974
5878 5880 5882 5884 5886 5889 5891 5893 5894 5896 5898 5899 5900 5901 5902 5904 5907 5909 5910 5910 5909 5910 5912 5914 5916 5919 5919 5919 5920 5922 5925 5927 5929 5931 5933 5934 5936 5938 5941 5944 5946 5947 5947 5947 5948 5949 5951 5952 5952 5952 5953 5953 5953 5954 5954 5955 5956 5958 5959 5960 5961 5961 5962 5962 5962 5962 5962 5963 5963 5964 5965 5966 5967 5967 5968 5969 5970 5970 5971 5972 5972 5973 5973 5973 5973
5875 5877 5879 5881 5883 5886 5888 5890 5892 5893 5895 5897 5897 5897 5897 5899 5901 5903 5905 5907 5908 5908 5909 5910 5913 5916 5917 5917 5917 5919 5922 5924 5927 5929 5930 5931 5933 5935 5937 5939 5942 5945 5945 5943 5943 5944 5947 5950 5951 5952 5952 5952 5952 5952 5952 5953 5954 5955 5956 5958 5959 5960 5961 5962 5962 5962 5962 5962 5962 5963 5963 5964 5964 5965 5965 5966 5967 5968 5968 5969 5970 5970 5971 5971 5971
5872 5873 5875 5877 5879 5882 5884 5886 5889 5890 5892 5894 5894 5893 5893 5894 5896 5898 5900 5903 5905 5906 5907 5908 5910 5912 5914 5915 5915 5917 5919 5922 5924 5926 5928 5929 5931 5932 5933 5934 5937 5940 5942 5941 5940 5940 5943 5946 5949 5950 5951 5952 5952 5951 5951 5951 5952 5953 5954 5955 5957 5958 5959 5960 5961 5962 5962 5962 5962 5962 5962 5962 5962 5963 5963 5964 5964 5965 5965 5966 5967 5967 5968 5968 5969
5868 5870 5871 5873 5875 5877 5879 5882 5884 5886 5888 5889 5890 5891 5891 5892 5894 5896 5898 5900 5902 5904 5905 5906 5907 5909 5911 5913 5913 5915 5917 5919 5921 5923 5925 5927 5929 5930 5931 5931 5932 5935 5938 5940 5940 5939 5940 5942 5945 5947 5948 5949 5949 5950 5950 5950 5950 5950 5951 5952 5954 5955 5956 5958 5959 5960 5961 5961 5962 5962 5962 5962 5962 5962 5962 5962 5962 5962 5962 5963 5963 5964 5964 5965 5966
5864 5866 5868 5869 5871 5873 5875 5877 5880 5882 5884 5885 5886 5888 5889 5891 5892 5893 5895 5898 5899 5901 5903 5905 5906 5907 5908 5909 5911 5913 5915 5917 5918 5919 5921 5923 5926 5927 5928 5929 5930 5932 5935 5937 5938 5937 5937 5938 5941 5943 5944 5945 5946 5947 5948 5948 5948 5948 5949 5950 5951 5952 5953 5954 5955 5956 5957 5958 5959 5960 5961 5961 5961 5961 5961 5960 5960 5960 5960 5960 5960 5961 5961 5961 5962
5860 5862 5864 5866 5867 5869 5872 5873 5876 5878 5880 5882 5883 5884 5886 5888 5890 5890 5892 5895 5896 5898 5900 5901 5903 5904 5905 5906 5908 5911 5913 5914 5915 5917 5918 5919 5921 5924 5925 5926 5927 5929 5931 5934 5935 5935 5934 5935 5937 5939 5941 5943 5944 5945 5945 5946 5947 5947 5947 5948 5949 5950 5951 5952 5953 5954 5954 5955 5956 5957 5958 5959 5959 5960 5959 5959 5959 5959 5959 5959 5959 5958 5958 5958 5958
5857 5859 5861 5862 5864 5866 5867 5869 5871 5873 5876 5878 5879 5880 5882 5884 5886 5887 5889 5891 5893 5894 5896 5897 5899 5901 5902 5903 5905 5907 5910 5912 5913 5914 5916 5917 5918 5920 5921 5922 5924 5925 5927 5930 5932 5932 5932 5933 5935 5937 5938 5940 5941 5942 5943 5943 5944 5944 5945 5946 5947 5948 5949 5951 5951 5952 5952 5953 5954 5954 5955 5956 5956 5957 5957 5957 5957 5957 5957 5957 5957 5957 5956 5956 5956
5853 5855 5857 5858 5860 5862 5864 5865 5867 5870 5872 5874 5875 5876 5877 5879 5881 5883 5884 5886 5889 5891 5892 5894 5896 5898 5899 5901 5902 5904 5907 5909 5910 5911 5913 5914 5915 5917 5918 5919 5921 5922 5924 5925 5927 5928 5929 5931 5932 5934 5935 5936 5937 5938 5940 5940 5940 5941 5941 5942 5943 5945 5946 5948 5949 5950 5950 5951 5951 5952 5952 5953 5953 5953 5953 5953 5954 5954 5955 5955 5955 5955 5955 5955 5955
5849 5850 5852 5855 5857 5858 5860 5861 5863 5866 5868 5869 5870 5871 5873 5874 5876 5878 5880 5881 5883 5886 5888 5890 5893 5895 5896 5898 5899 5901 5903 5905 5907 5908 5909 5910 5911 5913 5914 5915 5917 5918 5920 5922 5923 5924 5926 5927 5928 5930 5931 5932 5932 5933 5934 5936 5937 5937 5938 5939 5939 5941 5943 5944 5946 5947 5947 5948 5949 5949 5950 5950 5950 5950 5950 5950 5950 5951 5952 5953 5953 5953 5953 5954 5954
5845 5846 5849 5851 5852 5854 5856 5858 5860 5862 5863 5864 5865 5867 5869 5870 5872 5873 5875 5877 5878 5881 5883 5886 5889 5891 5893 5894 5896 5897 5899 5901 5902 5904 5905 5906 5908 5909 5911 5912 5913 5915 5916 5918 5919 5921 5922 5924 5925 5925 5926 5927 5928 5928 5929 5931 5933 5934 5935 5935 5935 5936 5938 5940 5941 5943 5944 5945 5946 5946 5947 5947 5948 5947 5948 5948 5948 5948 5949 5950 5950 5950 5951 5952 5952
5840 5841 5845 5847 5847 5850 5852 5853 5854 5856 5858 5859 5860 5863 5864 5866 5868 5869 5871 5872 5874 5876 5878 5881 5884 5886 5889 5890 5892 5893 5895 5896 5898 5899 5901 5902 5904 5906 5908 5910 5911 5912 5913 5914 5915 5917 5918 5920 5921 5922 5922 5922 5922 5923 5924 5925 5927 5928 5930 5931 5931 5932 5933 5934 5935 5937 5939 5941 5942 5943 5943 5944 5944 5945 5945 5945 5945 5945 5946 5946 5947 5948 5949 5949 5947
5834 5837 5840 5841 5842 5844 5846 5847 5849 5851 5852 5854 5856 5858 5859 5861 5863 5865 5866 5868 5870 5871 5873 5875 5878 5880 5883 5885 5887 5889 5890 5892 5894 5896 5897 5898 5899 5900 5902 5905 5907 5907 5909 5910 5911 5913 5914 5916 5917 5918 5919 5918 5918 5918 5918 5919 5920 5921 5922 5924 5926 5927 5928 5928 5929 5931 5933 5935 5937 5938 5939 5939 5940 5941 5941 5941 5940 5939 5940 5941 5943 5944 5945 5944 5943
5829 5832 5834 5835 5836 5839 5840 5842 5844 5846 5847 5849 5851 5853 5854 5856 5858 5860 5861 5863 5865 5867 5869 5871 5872 5875 5877 5879 5881 5883 5885 5887 5889 5891 5892 5894 5895 5896 5897 5899 5901 5902 5904 5906 5908 5909 5911 5912 5913 5913 5914 5914 5913 5913 5913 5913 5914 5915 5917 5919 5921 5923 5923 5924 5925 5927 5929 5930 5931 5932 5933 5934 5935 5935 5936 5936 5936 5935 5935 5936 5938 5939 5939 5939 5939
5824 5827 5828 5828 5830 5833 5834 5837 5839 5841 5842 5844 5846 5847 5848 5850 5853 5854 5856 5858 5860 5862 5864 5866 5868 5869 5871 5874 5876 5878 5880 5882 5883 5885 5887 5888 5890 5892 5894 5895 5897 5898 5899 5901 5903 5905 5907 5908 5909 5909 5910 5910 5909 5909 5911 5913 5915 5916 5918 5919 5920 5921 5920 5921 5922 5923 5924 5925 5926 5927 5928 5929 5930 5931 5931 5932 5932 5932 5932 5933 5934 5934 5934 5934 5934
5820 5823 5823 5823 5825 5827 5828 5831 5834 5836 5837 5838 5840 5841 5843 5845 5847 5848 5850 5852 5854 5856 5858 5860 5862 5864 5866 5868 5870 5872 5875 5877 5878 5880 5882 5883 5884 5886 5888 5890 5892 5894 5895 5896 5898 5900 5902 5903 5905 5905 5905 5905 5906 5908 5911 5913 5915 5916 5917 5917 5917 5918 5918 5918 5919 5920 5919 5920 5921 5922 5924 5925 5926 5927 5927 5928 5928 5928 5928 5929 5929 5930 5930 5930 5930
5815 5817 5817 5818 5819 5821 5823 5826 5828 5830 5831 5833 5834 5835 5837 5838 5840 5842 5844 5846 5848 5849 5851 5853 5855 5857 5859 5861 5863 5866 5869 5871 5873 5875 5877 5878 5879 5880 5882 5884 5886 5888 5890 5892 5894 5895 5897 5898 5899 5900 5901 5901 5902 5904 5907 5908 5909 5910 5910 5910 5910 5911 5913 5915 5916 5916 5915 5915 5916 5918 5920 5921 5922 5923 5924 5924 5924 5924 5923 5924 5924 5925 5925 5926 5926
5810 5810 5811 5812 5814 5816 5819 5820 5821 5823 5825 5827 5828 5829 5830 5832 5834 5835 5837 5839 5841 5843 5845 5846 5849 5851 5853 5854 5856 5859 5862 5865 5867 5869 5871 5872 5874 5875 5876 5878 5880 5881 5883 5886 5888 5890 5892 5893 5894 5895 5897 5898 5898 5899 5901 5902 5902 5903 5903 5904 5905 5906 5908 5911 5912 5912 5911 5911 5913 5914 5916 5917 5918 5919 5919 5920 5920 5919 5919 5919 5919 5919 5920 5921 5922
5802 5803 5805 5807 5809 5811 5812 5813 5815 5816 5818 5820 5821 5823 5824 5826 5827 5829 5831 5833 5835 5836 5838 5840 5842 5844 5847 5847 5847 5851 5855 5859 5861 5862 5864 5866 5868 5869 5870 5872 5874 5875 5877 5879 5881 5883 5886 5888 5889 5890 5891 5893 5894 5895 5896 5897 5898 5899 5900 5901 5902 5903 5904 5906 5907 5908 5908 5908 5909 5911 5912 5913 5914 5914 5915 5916 5916 5915 5915 5915 5914 5915 5915 5915 5916
5795 5797 5799 5801 5803 5805 5805 5807 5809 5810 5811 5812 5814 5816 5818 5820 5821 5823 5825 5826 5828 5829 5831 5833 5835 5837 5839 5840 5841 5843 5847 5850 5852 5854 5856 5858 5860 5863 5864 5865 5867 5869 5871 5872 5874 5876 5878 5881 5883 5885 5886 5887 5889 5890 5891 5892 5894 5896 5898 5898 5898 5899 5899 5900 5901 5902 5903 5905 5905 5906 5908 5908 5908 5909 5910 5911 5911 5911 5911 5911 5910 5910 5910 5910 5911
5788 5790 5793 5795 5797 5798 5799 5801 5802 5803 5804 5805 5807 5809 5811 5813 5815 5817 5818 5820 5821 5822 5824 5825 5827 5829 5832 5834 5835 5836 5837 5839 5842 5845 5847 5850 5853 5855 5858 5859 5860 5862 5864 5866 5867 5869 5871 5873 5876 5878 5880 5882 5883 5884 5885 5887 5888 5890 5892 5894 5894 5894 5894 5895 5896 5897 5898 5900 5900 5901 5902 5902 5903 5904 5904 5905 5906 5906 5906 5906 5906 5905 5905 5905 5906
5781 5783 5786 5788 5791 5793 5794 5794 5795 5795 5797 5798 5800 5802 5804 5806 5808 5810 5812 5813 5814 5815 5816 5817 5819 5822 5825 5827 5828 5829 5829 5830 5833 5836 5839 5842 5845 5847 5849 5851 5852 5854 5856 5859 5861 5862 5864 5866 5868 5870 5872 5875 5876 5877 5878 5881 5882 5883 5885 5887 5888 5889 5889 5889 5890 5891 5893 5895 5895 5895 5896 5897 5897 5898 5899 5899 5900 5900 5901 5901 5901 5901 5901 5901 5901
5774 5777 5780 5782 5785 5787 5788 5788 5788 5789 5790 5792 5793 5795 5797 5800 5802 5803 5804 5805 5806 5807 5808 5809 5811 5814 5816 5819 5821 5823 5823 5823 5825 5827 5830 5833 5835 5837 5840 5842 5844 5847 5849 5851 5853 5855 5857 5859 5860 5862 5864 5866 5868 5870 5871 5873 5875 5877 5878 5880 5882 5883 5884 5884 5885 5886 5888 5890 5890 5890 5891 5891 5891 5892 5893 5894 5894 5894 5895 5895 5896 5896 5896 5896 5896